Flag for France Weather past 2 weeks in Périgueux, France

Now
75 °F

Sunny.


Feels Like: 78 °F
Forecast: 60 / 98 °F
Wind: 2 mph from South

Location: Bergerac Airport

Current Time: Aug 2, 2015 at 10:45:15 PM

Latest Report: Aug 2, 2015 at 10:00 PM


Visibility: 10 mi

Pressure: 29.92 "Hg

Humidity: 57%

Dew point: 59 °F

Location of PérigueuxLocation

Historic Weather in Périgueux — Graph

°F

Périgueux temperature yesterday

Maximum temperature yesterday: 81 °F (at 4:30 PM)
Minimum temperature yesterday: 55 °F (at 5:30 AM)
Average temperature yesterday: 68 °F

Past Weeks' High & Low Weather Summary

 TemperatureHumidityPressure
High95 °F (Jul 21, 4:00 PM)100% (Jul 21, 6:00 AM)30.12 "Hg (Jul 21, 6:00 AM)
Low48 °F (Jul 26, 6:30 AM)26% (Aug 2, 5:00 PM)29.80 "Hg (Jul 24, 4:30 PM)
Average70 °F64%29.99 "Hg
* Reported Jul 18 9:00 PM — Aug 2 9:30 PM, Périgueux, Weather by CustomWeather, © 2015

Note: Actual official high and low records may vary slightly from our data, if they occured in-between our weather recording intervals... More about our weather records

Advertising

Périgueux weather history for previous 24 hours

 ConditionsComfort  
Time TempWeatherWind HumidityBarometerVisibility
9:30 PM
Sun, Aug 2
79 °FSunny.3 mph48%29.92 "Hg10 mi
9:00 PM84 °FSunny.2 mph37%29.92 "Hg10 mi
8:30 PM86 °FSunny.3 mph35%29.89 "Hg10 mi
8:00 PM90 °FSunny.5 mph31%29.89 "Hg10 mi
7:30 PM90 °FPassing clouds.6 mph29%29.89 "HgN/A
7:00 PM90 °FPassing clouds.8 mph27%29.92 "HgN/A
6:30 PM91 °FSunny.3 mph26%29.92 "Hg10 mi
6:00 PM91 °FPassing clouds.7 mph26%29.92 "HgN/A
5:30 PM91 °FSunny.3 mph26%29.92 "Hg10 mi
5:00 PM91 °FSunny.3 mph26%29.92 "Hg10 mi
4:30 PM90 °FSunny.5 mph27%29.92 "Hg10 mi
4:00 PM90 °FPassing clouds.6 mph27%29.92 "HgN/A
3:30 PM88 °FSunny.5 mph27%29.95 "Hg10 mi
3:00 PM88 °FPassing clouds.8 mph27%29.95 "HgN/A
2:30 PM88 °FPassing clouds.7 mph29%29.95 "HgN/A
2:00 PM86 °FPassing clouds.8 mph31%29.98 "HgN/A
1:30 PM84 °FPassing clouds.8 mph35%29.98 "HgN/A
1:00 PM84 °FPassing clouds.9 mph35%29.98 "HgN/A
12:30 PM82 °FPassing clouds.7 mph40%29.98 "HgN/A
12:00 PM81 °FPassing clouds.7 mph42%30.01 "HgN/A
11:30 AM79 °FSunny.6 mph45%30.01 "Hg10 mi
11:00 AM75 °FPassing clouds.5 mph54%30.01 "HgN/A
10:30 AM73 °FPassing clouds.6 mph53%30.01 "HgN/A
10:00 AM70 °FSunny.7 mph64%30.04 "Hg10 mi
9:30 AM66 °FSunny.5 mph68%30.04 "Hg10 mi
9:00 AM63 °FSunny.5 mph77%30.04 "Hg10 mi
8:30 AM59 °FSunny.3 mph82%30.04 "Hg10 mi
8:00 AM55 °FSunny.3 mph94%30.04 "Hg10 mi
7:30 AM52 °FClear.3 mph94%30.04 "Hg10 mi
7:00 AM50 °FClear.3 mph94%30.04 "Hg10 mi
6:30 AM50 °FClear.3 mph94%30.04 "Hg10 mi
6:00 AM50 °FClear.5 mph94%30.04 "Hg10 mi
5:30 AM50 °FClear.3 mph94%30.04 "Hg10 mi
5:00 AM50 °FClear.3 mph94%30.04 "Hg10 mi
4:30 AM52 °FClear.2 mph94%30.04 "Hg10 mi
4:00 AM52 °FClear.No wind94%30.04 "Hg10 mi
3:30 AM52 °FClear.3 mph94%30.07 "Hg10 mi
3:00 AM52 °FClear.2 mph94%30.07 "Hg10 mi
2:30 AM54 °FClear.No wind88%30.07 "Hg10 mi
2:00 AM54 °FClear.No wind88%30.07 "Hg10 mi
1:30 AM55 °FClear.No wind88%30.07 "Hg10 mi
1:00 AM55 °FClear.No wind88%30.07 "Hg10 mi
12:30 AM57 °FClear.No wind82%30.07 "Hg10 mi
12:00 AM59 °FClear.3 mph77%30.07 "Hg10 mi
11:30 PM
Sat, Aug 1
59 °FClear.2 mph77%30.07 "Hg10 mi
11:00 PM61 °FClear.No wind72%30.07 "Hg10 mi
10:30 PM63 °FClear.2 mph68%30.04 "Hg10 mi
10:00 PM66 °FSunny.2 mph60%30.04 "Hg10 mi
Weather by CustomWeather, © 2015

See weather overviewHow to use our weather pages